TimeCST,TemperatureF,Dew PointF,Humidity,Sea Level PressureIn,VisibilityMPH,Wind Direction,Wind SpeedMPH,Gust SpeedMPH,PrecipitationIn,Events,Conditions,WindDirDegrees,DateUTC
12:15 AM,31.1,27.0,85,30.23,10.0,WNW,5.8,-,N/A,,Overcast,290,2013-01-03 06:15:00
12:35 AM,31.1,26.6,83,30.23,10.0,WNW,5.8,-,N/A,,Overcast,290,2013-01-03 06:35:00
12:55 AM,31.8,26.8,82,30.23,10.0,NW,8.1,-,N/A,,Overcast,310,2013-01-03 06:55:00
1:15 AM,31.6,26.6,82,30.23,10.0,WNW,10.4,-,N/A,,Overcast,300,2013-01-03 07:15:00
1:55 AM,31.1,26.1,82,30.23,10.0,NW,12.7,-,N/A,,Overcast,310,2013-01-03 07:55:00
2:15 AM,31.1,26.1,82,30.24,10.0,NW,11.5,-,N/A,,Overcast,320,2013-01-03 08:15:00
2:35 AM,30.9,25.7,81,30.25,10.0,NW,10.4,-,N/A,,Overcast,310,2013-01-03 08:35:00
2:55 AM,30.6,25.7,82,30.26,10.0,WNW,10.4,-,N/A,,Overcast,300,2013-01-03 08:55:00
3:15 AM,30.4,25.3,82,30.27,10.0,NW,10.4,-,N/A,,Overcast,310,2013-01-03 09:15:00
3:35 AM,30.2,25.3,82,30.27,10.0,WNW,9.2,-,N/A,,Overcast,300,2013-01-03 09:35:00
3:55 AM,30.2,25.2,82,30.27,10.0,NW,11.5,-,N/A,,Overcast,320,2013-01-03 09:55:00
4:15 AM,30.0,25.2,82,30.27,10.0,NW,8.1,-,N/A,,Overcast,310,2013-01-03 10:15:00
4:35 AM,30.0,24.8,81,30.27,10.0,NW,9.2,-,N/A,,Overcast,320,2013-01-03 10:35:00
4:55 AM,30.2,24.4,79,30.28,10.0,NW,9.2,-,N/A,,Overcast,310,2013-01-03 10:55:00
5:15 AM,30.0,24.6,80,30.28,10.0,WNW,8.1,-,N/A,,Overcast,300,2013-01-03 11:15:00
5:35 AM,29.7,24.4,81,30.30,10.0,NW,9.2,-,N/A,,Overcast,310,2013-01-03 11:35:00
5:55 AM,29.7,24.4,81,30.30,10.0,NW,9.2,-,N/A,,Overcast,310,2013-01-03 11:55:00
6:15 AM,29.7,24.4,81,30.31,10.0,NW,8.1,-,N/A,,Overcast,320,2013-01-03 12:15:00
6:35 AM,29.7,24.4,81,30.31,10.0,NW,8.1,16.1,N/A,,Overcast,320,2013-01-03 12:35:00
6:55 AM,28.2,24.3,85,30.32,10.0,NNW,17.3,-,N/A,,Overcast,340,2013-01-03 12:55:00
7:15 AM,26.4,23.0,87,30.34,10.0,North,13.8,-,N/A,,Overcast,350,2013-01-03 13:15:00
7:35 AM,25.7,21.2,83,30.34,10.0,NNW,13.8,-,N/A,,Overcast,340,2013-01-03 13:35:00
7:55 AM,24.8,20.1,82,30.35,10.0,NNW,16.1,-,N/A,,Overcast,340,2013-01-03 13:55:00
8:15 AM,24.1,19.4,82,30.36,10.0,North,13.8,-,N/A,,Overcast,350,2013-01-03 14:15:00
8:35 AM,23.7,19.2,83,30.37,10.0,NNW,12.7,-,N/A,,Overcast,340,2013-01-03 14:35:00
8:55 AM,23.5,18.9,82,30.38,10.0,North,13.8,-,N/A,,Overcast,350,2013-01-03 14:55:00
9:35 AM,20.5,12.9,73,30.40,10.0,NNW,18.4,25.3,N/A,,Overcast,330,2013-01-03 15:35:00
9:55 AM,19.9,12.7,74,30.40,10.0,NNW,16.1,24.2,N/A,,Overcast,340,2013-01-03 15:55:00
10:15 AM,19.4,12.4,74,30.41,10.0,NNW,20.7,-,N/A,,Overcast,340,2013-01-03 16:15:00
10:35 AM,19.0,12.2,75,30.41,10.0,NNW,17.3,-,N/A,,Overcast,340,2013-01-03 16:35:00
10:55 AM,19.4,12.9,76,30.41,10.0,NNW,13.8,-,N/A,,Mostly Cloudy,340,2013-01-03 16:55:00
11:15 AM,19.9,13.8,77,30.41,10.0,NNW,11.5,-,N/A,,Scattered Clouds,340,2013-01-03 17:15:00
11:35 AM,20.3,14.5,78,30.41,10.0,NNW,12.7,-,N/A,,Clear,340,2013-01-03 17:35:00
11:55 AM,21.0,15.1,78,30.40,10.0,NNW,11.5,-,N/A,,Mostly Cloudy,340,2013-01-03 17:55:00
12:15 PM,21.0,15.3,78,30.39,10.0,North,9.2,-,N/A,,Overcast,350,2013-01-03 18:15:00
12:35 PM,21.2,15.6,79,30.39,10.0,NNW,6.9,-,N/A,,Overcast,340,2013-01-03 18:35:00
12:55 PM,21.7,16.0,78,30.38,10.0,North,4.6,-,N/A,,Overcast,350,2013-01-03 18:55:00
1:35 PM,22.5,16.3,77,30.37,10.0,NW,5.8,-,N/A,,Overcast,320,2013-01-03 19:35:00
1:55 PM,22.8,16.9,78,30.36,10.0,WNW,3.5,-,N/A,,Overcast,290,2013-01-03 19:55:00
2:15 PM,23.0,17.1,78,30.36,10.0,WNW,3.5,-,N/A,,Overcast,300,2013-01-03 20:15:00
2:35 PM,23.4,17.2,77,30.36,10.0,WSW,3.5,-,N/A,,Overcast,250,2013-01-03 20:35:00
2:55 PM,23.7,17.2,76,30.36,10.0,SW,4.6,-,N/A,,Overcast,220,2013-01-03 20:55:00
3:15 PM,23.9,17.4,76,30.36,10.0,SW,4.6,-,N/A,,Overcast,220,2013-01-03 21:15:00
3:35 PM,23.9,17.8,77,30.36,10.0,South,3.5,-,N/A,,Overcast,190,2013-01-03 21:35:00
3:55 PM,24.3,18.3,78,30.36,10.0,South,5.8,-,N/A,,Overcast,180,2013-01-03 21:55:00
4:15 PM,24.8,18.3,76,30.36,10.0,SSW,5.8,-,N/A,,Mostly Cloudy,210,2013-01-03 22:15:00
4:35 PM,24.8,18.0,75,30.35,10.0,SW,5.8,-,N/A,,Scattered Clouds,230,2013-01-03 22:35:00
4:55 PM,23.7,17.4,77,30.36,10.0,SW,3.5,-,N/A,,Scattered Clouds,230,2013-01-03 22:55:00
5:15 PM,24.4,17.6,75,30.36,10.0,SSW,3.5,-,N/A,,Overcast,210,2013-01-03 23:15:00
5:35 PM,22.5,16.9,79,30.36,10.0,South,3.5,-,N/A,,Overcast,190,2013-01-03 23:35:00
5:55 PM,20.5,16.2,83,30.36,10.0,SSW,5.8,-,N/A,,Overcast,210,2013-01-03 23:55:00
6:15 PM,21.9,16.3,79,30.36,10.0,SW,5.8,-,N/A,,Scattered Clouds,220,2013-01-04 00:15:00
6:35 PM,21.2,15.4,78,30.36,10.0,SSW,6.9,-,N/A,,Clear,210,2013-01-04 00:35:00
6:55 PM,21.2,15.6,79,30.35,10.0,SSW,6.9,-,N/A,,Clear,210,2013-01-04 00:55:00
7:15 PM,18.7,13.8,81,30.35,10.0,South,5.8,-,N/A,,Clear,190,2013-01-04 01:15:00
7:35 PM,18.1,13.6,83,30.35,10.0,SSW,5.8,-,N/A,,Clear,200,2013-01-04 01:35:00
7:55 PM,18.0,13.8,84,30.35,10.0,SSW,6.9,-,N/A,,Clear,200,2013-01-04 01:55:00
8:15 PM,15.8,12.0,85,30.34,10.0,SSW,6.9,-,N/A,,Clear,210,2013-01-04 02:15:00
8:35 PM,16.2,12.7,86,30.34,7.0,SW,5.8,-,N/A,,Clear,230,2013-01-04 02:35:00
8:55 PM,15.6,12.6,88,30.34,10.0,SW,5.8,-,N/A,,Clear,230,2013-01-04 02:55:00
9:15 PM,16.3,12.9,86,30.33,10.0,SW,8.1,-,N/A,,Clear,220,2013-01-04 03:15:00
9:35 PM,16.3,13.1,87,30.33,10.0,WSW,5.8,-,N/A,,Clear,240,2013-01-04 03:35:00
9:55 PM,16.5,13.1,86,30.33,10.0,SW,6.9,-,N/A,,Clear,220,2013-01-04 03:55:00
10:15 PM,16.3,13.1,87,30.32,10.0,SW,5.8,-,N/A,,Clear,230,2013-01-04 04:15:00
10:35 PM,15.4,12.7,89,30.32,10.0,SSW,6.9,-,N/A,,Clear,210,2013-01-04 04:35:00
10:55 PM,17.2,14.0,87,30.31,10.0,SSW,8.1,-,N/A,,Clear,210,2013-01-04 04:55:00
11:15 PM,17.4,14.0,86,30.31,10.0,SSW,10.4,-,N/A,,Clear,210,2013-01-04 05:15:00
11:35 PM,16.7,14.0,89,30.31,10.0,SW,5.8,-,N/A,,Clear,230,2013-01-04 05:35:00
11:55 PM,16.7,13.8,88,30.31,10.0,SW,5.8,-,N/A,,Clear,220,2013-01-04 05:55:00